GEFSCGP_con_prob3kmehi_252.txt.gz
EHI
0 0 0 0 0 0 0 0 0 0 0 1 2 3 3 4 6 8 12 15 15 14 14 18 21 21 18 15 13 11 8 7 7 7 7 6 4 2 3 3 3 3 3 3
0 0 0 0 0 0 0 0 0 0 0 1 2 2 3 5 7 9 12 13 13 13 14 18 22 24 22 19 16 14 12 9 8 7 7 4 2 2 2 3 3 3 4 4
0 0 0 0 0 0 0 0 0 0 0 0 1 1 3 6 8 9 11 11 12 13 15 18 24 30 30 26 24 22 19 15 11 9 6 4 3 2 2 2 4 5 6 7
0 0 0 0 0 0 0 1 1 1 0 0 0 0 2 7 11 11 11 11 13 15 17 21 27 33 36 34 30 27 24 21 16 11 8 7 7 6 3 2 4 6 8 9
0 0 0 0 0 0 0 1 2 1 0 0 0 0 1 6 12 14 14 14 13 14 17 23 28 32 35 36 33 30 27 24 19 15 12 10 9 8 6 4 4 4 6 7
0 0 0 0 0 0 0 1 1 0 0 0 0 0 1 4 10 15 17 17 13 12 16 21 26 28 31 35 35 33 30 26 22 19 16 13 10 10 9 8 6 5 5 5
0 0 0 0 0 0 0 0 0 0 0 0 0 0 1 2 6 12 16 17 14 13 16 22 26 28 32 38 39 36 32 30 28 24 20 17 15 12 11 11 10 9 8 7
0 0 0 0 0 0 0 0 0 0 0 0 0 1 1 2 3 7 11 15 16 16 19 24 29 30 35 40 42 39 36 35 34 31 26 22 20 16 12 10 11 11 11 11
0 0 0 0 0 0 0 0 0 0 0 0 0 1 2 2 2 4 7 11 16 19 21 26 31 32 33 37 41 42 41 39 37 36 32 26 23 19 13 9 10 10 10 10
0 0 0 0 0 0 0 0 0 0 0 0 0 1 1 2 3 5 7 10 15 19 20 24 30 31 31 33 37 40 41 39 37 36 34 30 24 19 14 11 10 10 9 7
0 0 0 0 0 0 0 0 0 0 0 0 0 0 1 2 4 6 7 10 14 17 18 20 26 29 29 30 33 36 37 37 37 36 34 32 28 22 17 14 13 13 11 8
0 0 0 0 0 0 0 0 0 0 0 0 0 0 1 3 6 6 7 11 16 18 17 18 22 27 28 27 28 32 35 38 40 38 35 35 34 29 23 19 18 18 15 12
0 0 0 0 0 0 0 0 0 0 0 0 0 0 2 5 8 8 9 14 19 22 21 21 22 25 27 27 25 27 32 37 40 40 38 37 36 32 27 24 22 20 18 17
0 0 0 0 0 0 0 0 0 0 0 0 0 0 2 6 9 11 13 20 23 25 26 26 24 24 26 27 25 25 28 32 36 38 38 37 34 30 26 25 23 20 18 17
0 0 0 0 0 0 0 0 0 0 0 0 0 1 3 6 10 14 20 26 27 26 27 27 24 22 23 25 25 26 28 29 31 34 35 33 31 28 25 22 20 18 16 14
0 0 0 0 0 0 0 0 0 0 0 0 1 2 4 7 12 18 24 29 28 26 25 24 22 20 21 22 23 25 27 27 27 29 31 29 28 26 23 18 16 14 13 12
0 0 0 0 0 0 0 0 0 1 1 1 2 4 7 11 16 21 25 27 26 24 24 23 21 19 19 19 20 21 24 25 24 26 28 27 25 23 20 17 15 14 15 16
0 0 0 0 0 0 0 0 0 1 2 3 4 7 11 17 20 22 23 23 21 20 23 24 22 19 17 17 18 19 21 21 21 23 25 24 23 21 19 18 17 17 19 21
0 0 0 0 0 0 0 0 0 2 3 4 6 10 16 21 23 21 18 17 17 17 20 22 20 17 16 16 17 19 19 18 18 20 21 20 18 18 18 18 18 18 19 19
0 0 0 0 0 0 0 0 0 1 3 5 8 12 16 19 19 16 13 12 13 15 18 20 19 16 15 16 17 17 17 16 16 18 19 18 15 14 15 16 17 17 16 15
0 0 0 0 0 0 0 0 0 1 2 4 7 11 12 12 12 12 11 10 11 13 16 20 20 18 16 16 17 17 15 14 14 16 18 18 16 14 13 14 15 15 14 12
0 0 0 0 0 0 0 0 0 0 1 4 6 7 8 9 11 13 12 11 11 11 14 18 20 18 17 16 17 16 15 12 12 14 16 16 15 13 14 15 15 14 13 11
0 0 0 0 0 0 0 0 0 0 2 4 4 4 5 9 13 14 14 12 10 10 11 13 16 17 16 16 16 15 14 13 12 13 14 13 11 11 14 16 15 13 13 12
0 0 0 0 0 1 0 0 0 0 1 2 2 3 4 6 9 11 11 10 8 7 7 7 10 14 15 15 14 13 13 12 11 12 12 11 10 10 12 14 13 12 12 12
0 0 0 0 0 0 0 0 0 0 0 0 1 2 2 3 4 6 6 6 5 5 5 5 7 11 13 12 11 11 9 9 8 9 9 9 9 9 9 9 9 9 9 9
0 0 0 0 0 0 0 0 0 0 0 0 1 1 2 2 2 3 4 4 4 4 4 4 6 9 10 9 8 8 6 6 6 7 7 8 8 7 7 7 7 7 6 5

GEFSCGP_con_prob3kmehi_258.txt.gz
EHI
0 0 0 0 0 0 0 0 0 0 0 0 0 0 1 2 4 5 6 6 5 2 1 3 6 8 8 8 7 7 6 4 3 3 3 2 1 0 0 0 0 0 0 1
0 0 0 0 0 0 0 0 0 0 0 0 0 0 1 2 4 5 6 6 5 3 1 3 6 8 8 8 8 7 6 5 4 4 3 1 0 0 0 0 0 0 1 2
0 0 0 0 0 0 0 0 0 0 0 0 0 0 1 2 3 4 5 6 6 4 3 4 7 8 9 9 9 8 7 6 6 5 4 2 1 1 0 0 0 1 2 3
0 0 0 0 0 0 0 0 0 0 0 0 0 0 1 3 4 3 3 5 7 6 5 6 7 8 8 8 8 8 6 6 6 5 4 3 2 1 0 0 1 1 3 3
0 0 0 0 0 0 0 0 0 0 0 0 0 0 1 2 3 2 2 4 7 7 7 7 7 8 9 9 8 7 5 4 4 4 4 3 3 1 0 0 1 2 3 3
0 0 0 0 0 0 0 0 0 0 0 0 0 0 0 1 1 1 1 3 6 6 5 5 6 8 9 8 8 8 6 4 3 3 3 3 3 2 2 2 1 2 3 3
0 0 0 0 0 0 0 0 0 0 0 0 0 0 0 0 0 0 0 1 3 4 3 3 5 7 7 6 8 10 8 5 3 3 3 4 4 4 5 4 2 1 2 2
0 0 0 0 0 0 0 0 0 0 0 0 0 0 0 0 0 0 0 0 1 2 2 2 3 5 6 6 9 13 11 6 4 4 4 4 6 6 6 5 3 1 1 1
0 0 0 0 0 0 0 0 0 0 0 0 0 0 0 0 0 0 0 1 2 3 3 1 2 5 7 7 10 14 13 8 6 6 6 6 7 7 7 7 5 3 1 0
0 0 0 0 0 0 0 0 0 0 0 0 0 0 0 0 0 0 2 4 6 5 4 3 3 6 8 8 9 12 12 9 7 7 7 8 8 8 8 9 9 6 2 0
0 0 0 0 0 0 0 0 0 0 0 0 0 0 0 0 0 1 3 6 7 7 6 6 6 7 9 9 8 9 11 10 8 8 9 10 10 9 9 10 9 7 3 2
0 0 0 0 0 0 0 0 0 0 0 0 0 0 0 0 1 2 4 6 6 6 7 7 7 8 9 9 9 10 11 11 11 13 13 14 14 12 11 10 8 6 4 3
0 0 0 0 0 0 0 0 0 0 0 0 0 0 1 2 4 5 6 6 6 6 5 6 6 8 9 10 11 12 11 12 14 17 17 17 17 16 14 13 11 7 5 5
0 0 0 0 0 0 0 0 0 0 0 0 0 1 2 5 7 9 9 8 6 5 5 5 6 7 9 12 13 13 11 11 13 15 17 18 18 19 18 17 14 11 9 7
0 0 0 0 0 0 0 0 0 0 0 0 0 1 3 6 9 10 11 11 9 7 6 7 8 9 10 13 13 12 10 9 10 12 14 16 18 20 19 17 13 11 10 9
0 0 0 0 0 0 0 0 0 0 0 0 0 1 3 7 10 11 13 15 14 10 9 9 11 12 12 11 11 9 9 10 10 12 14 17 20 20 17 12 9 8 7 7
0 0 0 0 0 0 0 0 1 1 0 0 1 2 6 10 12 13 15 18 16 12 9 10 11 11 10 9 8 7 8 10 12 14 16 19 22 21 15 8 4 4 5 5
0 0 0 0 0 0 0 0 1 2 1 1 2 4 7 11 13 14 15 16 14 11 9 9 8 7 6 5 6 8 10 11 13 15 17 19 20 19 14 8 4 4 5 6
0 0 0 0 0 0 0 0 1 2 2 2 3 4 6 10 13 12 11 11 10 9 9 9 8 6 4 3 4 8 11 12 13 15 16 16 14 13 10 8 7 7 8 9
0 0 0 0 0 0 0 0 0 1 2 2 2 3 5 7 9 8 7 7 7 7 8 9 10 8 6 4 4 6 9 11 12 13 14 12 9 7 7 8 9 10 10 10
0 0 0 0 0 0 0 0 0 0 1 1 1 2 4 5 5 5 5 5 4 6 8 9 10 9 7 7 6 6 7 8 8 9 11 10 6 4 6 8 11 12 12 12
0 0 0 0 0 0 0 0 0 0 0 0 1 3 5 5 4 4 4 3 3 4 7 8 8 8 8 8 8 6 6 6 5 6 7 7 5 4 4 7 9 11 12 13
0 0 0 0 0 0 0 0 0 0 0 0 2 4 5 5 5 4 3 2 2 3 5 6 6 7 7 7 7 6 5 5 4 3 4 4 4 3 3 4 6 8 11 12
0 0 0 0 0 0 0 0 0 0 0 0 2 3 4 5 4 3 1 1 1 2 3 4 5 6 5 5 5 5 4 4 3 2 2 3 3 3 3 3 4 5 7 8
0 0 0 0 0 0 0 0 0 0 0 0 1 2 3 3 3 2 1 0 0 1 1 1 2 4 4 4 4 3 2 2 3 2 1 1 2 2 2 2 2 2 3 4
0 0 0 0 0 0 0 0 0 0 0 0 0 1 1 1 1 1 0 0 0 1 0 0 1 2 4 4 3 1 1 1 2 1 0 0 1 1 1 1 1 1 1 1

GEFSCGP_con_prob3kmehi_264.txt.gz
EHI
0 0 0 0 0 0 0 0 0 0 0 0 0 0 1 2 3 5 7 6 5 3 3 3 4 6 9 13 17 18 18 18 14 10 7 6 5 6 9 9 9 7 5 4
0 0 0 0 0 0 0 0 0 0 0 0 0 0 0 2 4 5 7 7 7 7 6 5 5 6 9 11 15 16 16 16 15 10 6 5 4 5 6 6 6 6 5 4
0 0 0 0 0 0 0 0 0 0 0 0 0 0 0 1 3 6 8 8 8 10 10 8 7 8 8 9 11 13 14 14 15 12 7 4 3 3 3 3 3 4 4 4
0 0 0 0 0 0 0 0 0 0 0 0 0 0 1 1 2 5 7 8 8 9 10 10 10 11 10 9 11 14 14 15 16 14 9 6 4 3 2 1 1 2 3 3
0 0 0 0 0 0 0 0 0 0 0 0 0 0 1 1 1 3 5 8 8 8 9 11 12 13 12 11 13 18 20 19 18 15 11 7 4 3 2 1 1 2 2 3
0 0 0 0 0 0 0 0 0 0 0 0 0 0 0 0 0 1 4 8 10 10 11 12 14 14 13 13 15 20 25 25 22 17 13 10 6 3 2 1 2 3 3 4
0 0 0 0 0 0 0 0 0 0 0 0 0 0 0 0 0 1 3 9 14 14 13 14 16 16 14 14 14 18 25 29 28 23 18 14 10 6 4 2 3 4 5 6
0 0 0 0 0 0 0 0 0 0 0 0 0 1 1 1 2 2 5 12 18 19 15 14 14 16 16 15 14 18 25 32 34 31 26 21 16 12 8 5 4 6 7 7
0 0 0 0 0 0 0 0 0 0 0 0 0 1 2 4 4 3 6 15 22 24 20 14 10 11 16 17 16 21 28 34 35 33 29 26 22 18 13 11 10 10 10 9
0 0 0 0 0 0 0 0 0 0 0 0 0 1 3 5 5 4 7 14 20 22 20 13 7 7 12 17 20 24 27 30 30 28 25 23 23 22 19 17 17 16 15 14
0 0 0 0 0 0 0 0 0 0 0 0 0 1 2 4 4 4 7 11 14 16 15 10 7 6 10 16 21 24 25 25 24 23 22 22 21 22 21 20 21 21 20 19
0 0 0 0 0 0 0 0 0 0 0 0 0 0 1 3 3 4 7 10 10 11 12 11 9 10 13 17 22 23 24 23 21 22 25 26 24 22 21 20 21 22 21 20
0 0 0 0 0 0 0 0 0 0 0 0 0 1 1 3 3 4 7 10 9 10 14 16 15 14 17 21 24 24 22 21 20 22 25 26 24 23 23 22 22 23 22 22
0 0 0 0 0 0 0 0 0 0 0 0 0 1 3 4 5 6 9 10 9 12 17 22 22 21 21 23 25 24 23 22 22 22 22 23 23 22 23 23 25 26 26 25
0 0 0 0 0 0 0 0 0 0 0 0 1 1 4 6 6 7 10 12 14 17 21 25 27 27 26 26 27 27 26 27 28 25 23 23 22 21 21 23 27 31 30 28
0 0 0 0 0 0 0 0 0 0 0 1 1 1 3 6 7 9 12 16 19 21 23 25 26 28 29 30 31 31 31 32 33 30 27 25 22 22 22 25 29 32 32 30
0 0 0 0 0 0 0 0 0 0 1 1 1 1 3 5 8 11 15 17 19 22 24 23 24 27 29 30 32 32 32 33 35 34 30 26 23 23 24 26 30 31 31 31
0 0 0 0 0 0 0 0 0 0 1 1 2 2 4 6 8 12 17 18 18 21 23 22 22 25 28 29 29 29 29 32 34 34 31 27 25 24 25 27 28 29 29 29
0 0 0 0 0 0 0 0 0 1 1 1 1 3 6 7 8 11 17 20 20 20 22 23 23 25 28 28 26 25 26 29 31 32 31 29 27 26 26 27 27 26 25 23
0 0 0 0 0 0 0 0 0 1 2 2 2 5 7 9 11 14 19 23 22 21 23 24 25 26 27 26 24 23 23 25 27 27 28 28 28 27 27 28 27 25 21 18
0 0 0 0 0 0 0 0 1 3 4 5 7 11 12 14 18 20 21 23 23 22 21 22 24 25 24 22 22 22 23 25 24 22 21 23 25 25 25 26 25 23 19 17
0 0 0 0 0 0 0 0 2 4 6 7 11 15 19 20 21 21 21 21 21 20 19 19 20 21 20 20 21 22 24 25 23 17 15 17 20 19 19 21 21 18 17 16
0 1 1 0 0 0 0 1 2 3 5 7 9 13 16 16 16 16 17 17 16 16 16 16 17 16 16 17 19 21 23 23 19 15 13 14 16 15 15 16 15 12 12 12
1 1 1 1 0 0 0 1 2 2 3 4 6 9 9 7 7 10 12 13 12 12 13 12 12 13 14 15 16 18 18 16 15 14 13 13 13 13 15 14 11 8 8 8
2 2 1 1 1 1 0 1 1 1 1 3 4 5 4 2 3 6 9 11 11 12 11 10 8 9 12 14 15 14 12 12 12 12 11 10 10 11 13 12 9 7 6 5
3 2 2 2 2 2 1 0 0 0 1 2 3 2 2 1 2 5 8 10 11 12 12 10 6 7 10 13 14 12 10 11 12 11 9 7 8 9 10 9 7 5 3 2

GEFSCGP_con_prob3kmehi_270.txt.gz
EHI
0 0 0 0 0 0 0 1 2 3 3 2 1 1 4 8 10 12 18 27 29 25 25 27 27 30 34 33 30 27 23 22 19 13 9 11 14 15 14 15 18 18 12 6
0 0 0 0 0 0 0 1 2 3 3 1 0 1 4 9 12 13 18 27 31 31 34 37 35 34 36 35 32 29 26 23 19 14 10 11 14 15 16 18 21 20 14 9
0 0 0 0 0 0 0 0 1 2 2 1 0 1 6 11 13 12 15 23 30 35 41 44 41 39 39 38 34 32 30 25 20 17 13 13 16 17 17 20 22 21 15 11
0 0 0 0 0 0 0 0 1 1 1 0 0 1 6 10 11 10 11 17 25 34 41 44 42 41 39 36 35 36 36 30 24 20 17 17 19 19 18 20 21 19 16 14
0 0 0 0 0 0 0 0 0 0 0 0 0 1 4 7 9 9 10 15 22 31 39 43 42 40 38 35 34 38 41 37 30 25 22 19 18 17 17 20 21 18 15 16
0 0 0 0 0 0 0 0 0 0 0 0 0 1 4 6 7 8 11 16 23 31 38 42 42 40 38 37 37 39 44 44 38 33 28 23 19 16 16 19 20 17 15 16
0 0 0 0 0 0 0 0 0 0 0 0 0 1 5 8 7 8 13 20 25 30 35 40 41 40 38 38 39 42 48 49 44 38 33 29 24 20 18 20 21 19 17 17
0 0 0 0 0 0 0 0 0 0 0 0 0 2 6 7 7 9 15 22 26 28 33 37 40 40 39 39 42 48 54 54 48 41 36 33 31 26 22 21 22 22 22 22
0 0 0 0 0 0 0 0 0 0 0 0 1 4 6 7 7 8 14 22 26 28 33 36 37 37 37 39 42 48 55 56 50 42 37 34 33 30 25 23 24 23 24 24
0 0 0 0 0 0 0 0 0 0 0 0 1 4 7 8 8 9 13 21 27 29 33 34 32 31 31 32 34 41 49 52 48 42 37 34 33 32 30 27 26 25 25 24
0 0 0 0 0 0 0 0 0 0 0 0 1 3 6 8 9 11 16 23 27 30 32 32 30 26 24 24 27 34 42 46 45 42 38 35 34 35 35 33 30 29 28 27
0 0 0 0 0 0 0 0 0 0 0 0 1 4 7 9 10 13 19 24 28 29 31 31 30 27 25 26 28 31 36 39 40 40 39 38 37 38 38 36 33 31 30 31
0 0 0 0 0 0 0 0 0 0 0 0 1 5 8 10 11 14 21 26 29 30 32 34 35 34 34 35 35 34 33 34 35 37 38 38 38 38 37 35 33 31 31 32
0 0 0 0 0 0 0 0 0 0 0 0 1 4 8 11 13 16 22 28 30 33 37 40 41 43 45 45 44 40 36 34 34 35 36 36 36 36 35 33 32 31 32 32
0 0 0 0 0 0 0 0 0 0 0 0 1 4 7 11 15 18 22 28 33 36 40 42 44 46 49 50 49 44 40 38 38 37 35 34 35 34 34 33 32 32 32 33
0 0 0 0 0 0 0 0 0 0 0 1 3 6 10 14 17 17 21 28 35 39 40 40 41 44 47 49 50 48 43 42 43 42 38 36 36 35 34 34 35 35 35 35
0 0 0 0 0 0 0 0 0 1 1 2 5 10 14 18 18 18 23 31 35 36 37 38 39 40 43 46 48 49 46 44 44 45 43 40 39 38 36 36 39 40 39 38
0 0 0 0 0 0 0 0 0 1 2 3 6 11 16 20 21 23 28 33 34 32 32 35 37 38 40 43 44 46 45 43 43 45 45 42 41 40 39 38 39 41 41 39
1 2 1 0 0 0 0 1 1 1 2 4 7 11 16 21 26 29 33 35 33 31 30 33 35 36 39 41 41 41 42 41 42 44 45 43 41 41 39 38 38 39 38 36
2 2 1 0 0 0 1 2 3 1 2 5 9 13 19 26 32 37 39 37 34 31 30 31 32 35 39 41 42 42 41 40 42 45 45 44 43 41 39 38 38 37 35 34
1 2 1 0 0 1 2 4 5 7 10 11 13 18 26 34 40 42 41 37 34 31 29 28 31 35 39 41 42 43 42 41 42 45 46 46 44 41 39 40 40 39 36 33
0 0 0 0 1 4 7 9 12 18 21 21 21 23 30 39 43 42 40 35 32 29 26 25 29 33 35 37 39 39 39 39 39 42 45 46 43 38 37 39 39 37 34 31
1 2 3 3 4 9 12 15 19 23 27 27 25 25 29 35 39 39 37 34 30 27 25 24 25 28 30 32 33 33 32 31 31 35 39 39 36 31 29 30 30 29 27 26
2 5 7 7 8 10 12 14 17 21 24 24 23 23 25 30 33 35 34 33 30 27 25 24 24 25 25 26 27 25 25 24 23 25 29 29 25 22 20 19 18 18 17 17
4 6 9 9 10 10 9 9 12 15 18 19 18 19 21 24 26 27 29 30 29 27 24 23 22 21 20 22 22 20 20 21 20 21 22 21 18 15 13 11 9 9 8 8
4 6 7 9 11 11 9 9 10 12 14 15 15 16 17 18 18 20 24 25 26 26 23 22 21 18 18 20 20 19 19 20 20 20 20 19 16 11 8 7 5 4 3 3

GEFSCGP_con_prob3kmehi_276.txt.gz
EHI
0 0 0 0 0 0 1 2 3 2 1 0 1 5 7 10 18 23 20 17 16 16 19 25 26 21 18 15 14 12 11 10 9 7 8 7 4 2 1 3 3 3 2 1
0 0 0 0 0 0 1 2 2 1 0 0 1 3 6 8 15 21 20 16 15 15 19 25 26 24 21 19 16 13 11 10 8 6 6 5 3 1 1 2 2 2 1 0
0 0 0 0 0 0 0 1 1 1 0 0 0 2 4 6 12 18 20 17 14 15 19 25 27 27 26 24 20 15 12 10 8 6 5 5 3 2 1 1 1 1 1 1
0 0 0 0 0 0 0 0 0 0 0 0 0 0 2 5 10 18 21 18 16 16 20 24 28 30 32 29 24 17 13 11 10 8 7 7 6 4 2 0 0 1 2 3
0 0 0 0 0 0 0 0 0 0 0 0 0 0 1 4 9 16 20 18 18 18 20 23 27 31 35 34 29 20 15 14 14 13 11 9 7 4 2 1 0 1 3 5
0 0 0 0 0 0 0 0 0 0 0 0 0 0 1 3 7 12 17 18 19 21 21 22 26 32 36 36 32 25 19 18 18 17 14 11 8 5 4 2 1 1 4 6
0 0 0 0 0 0 0 0 0 0 0 0 0 0 1 2 6 12 16 19 21 23 23 23 27 33 37 38 34 29 23 19 18 18 17 14 11 8 5 2 1 3 5 6
0 0 0 0 0 0 0 0 0 0 0 0 0 0 1 4 8 14 18 20 23 25 26 25 27 32 37 38 34 29 23 19 17 17 17 16 14 10 6 3 3 4 6 6
0 0 0 0 0 0 0 0 0 0 0 0 0 1 3 7 12 16 18 20 23 26 27 27 26 27 32 35 32 27 22 19 18 17 17 17 17 15 11 8 7 7 7 8
0 0 0 0 0 0 0 0 0 0 0 0 0 0 3 8 14 16 18 21 23 24 25 24 22 23 27 29 29 26 22 19 18 19 20 21 21 21 17 13 11 10 10 10
0 0 0 0 0 0 0 0 0 0 0 0 0 0 3 7 13 16 19 21 22 22 21 20 20 20 22 24 25 25 22 20 19 20 22 23 24 24 21 16 13 12 11 11
0 0 0 0 0 0 0 0 0 0 0 0 0 1 4 8 12 17 19 20 20 20 20 19 19 19 18 19 22 25 24 21 20 21 22 22 23 23 21 17 14 14 13 12
0 0 0 0 0 0 0 0 0 0 0 0 0 2 7 10 12 16 19 18 17 18 19 18 18 17 16 17 20 24 24 22 21 22 23 22 21 21 20 16 15 16 15 14
0 0 0 0 0 0 0 0 0 0 0 0 1 5 10 12 13 17 20 20 20 19 17 16 16 15 16 18 20 21 21 21 20 21 22 22 21 20 19 17 16 16 17 17
0 0 0 0 0 0 0 0 0 0 0 0 2 7 12 13 15 20 24 25 25 23 19 16 15 15 17 20 21 20 19 19 19 18 19 20 19 18 18 18 17 17 18 19
0 0 0 0 0 0 0 0 0 0 0 0 2 7 12 14 17 24 29 30 29 26 21 18 17 17 20 22 23 22 19 18 18 18 18 17 16 14 15 16 17 17 18 19
0 0 0 0 0 0 0 0 0 0 1 1 4 9 14 16 19 25 29 31 30 25 21 19 19 19 21 23 23 22 20 19 19 19 18 16 15 14 13 14 14 15 16 16
0 0 0 0 0 0 0 0 0 1 3 5 8 14 18 20 21 23 26 29 27 22 19 19 19 19 19 20 21 21 20 20 20 19 16 15 15 14 13 12 12 12 12 12
0 0 0 0 0 0 0 0 1 2 5 8 13 17 20 21 21 21 21 22 21 19 18 18 18 18 18 18 19 19 19 20 20 19 16 15 15 15 12 11 10 9 9 9
0 0 0 0 0 0 0 1 2 4 7 11 14 18 19 19 19 18 17 16 15 16 17 18 19 20 20 19 18 17 17 18 19 18 16 15 14 14 12 10 9 9 10 10
0 0 0 0 0 0 0 2 4 5 8 12 17 18 18 17 17 17 16 14 13 14 15 17 20 22 22 21 18 15 14 15 17 18 17 14 12 12 11 10 11 12 11 11
0 0 0 0 0 0 1 3 5 6 9 14 17 18 18 18 18 19 17 15 13 13 14 16 20 23 23 22 19 16 14 14 16 18 18 15 13 11 10 11 12 12 11 12
0 0 0 1 1 1 2 4 5 6 9 14 16 17 17 18 18 18 16 14 12 11 12 15 18 20 20 18 17 16 14 13 15 17 17 15 13 11 10 9 8 8 8 9
0 0 1 2 2 3 4 4 5 7 10 13 16 16 16 15 15 14 13 11 10 9 11 13 14 15 14 13 12 12 12 11 12 13 13 13 12 9 7 5 3 3 4 5
0 0 1 2 3 3 4 5 6 8 12 14 16 15 13 12 11 10 10 8 7 7 8 9 10 9 9 9 9 8 8 8 9 10 11 11 9 7 4 2 1 1 1 2
0 0 1 2 3 3 4 5 7 10 12 13 14 14 12 9 8 8 8 7 5 4 5 7 7 7 7 8 9 7 5 7 9 10 10 9 7 6 4 1 0 0 0 1

GEFSCGP_con_prob3kmehi_282.txt.gz
EHI
0 0 0 0 0 0 0 0 0 0 0 1 2 3 3 6 9 10 10 9 6 4 3 2 3 7 9 7 4 4 5 5 4 4 4 4 2 1 0 0 1 0 1 2
0 0 0 0 0 0 0 0 0 0 0 0 1 2 3 6 8 8 8 8 7 4 3 3 5 7 9 8 6 6 6 6 4 4 4 4 3 1 1 1 2 1 1 2
0 0 0 0 0 0 0 0 0 0 0 0 0 0 1 4 6 6 6 8 8 5 4 4 7 9 9 9 9 9 9 8 6 5 5 5 5 4 3 3 4 3 2 2
0 0 0 0 0 0 0 0 0 0 0 0 0 0 0 2 5 6 7 9 10 8 6 7 9 10 10 9 10 11 10 8 6 6 6 8 9 7 4 3 4 3 3 3
0 0 0 0 0 0 0 0 0 0 0 0 0 0 0 1 3 6 9 11 13 12 10 9 11 11 10 9 9 9 9 7 6 6 7 8 9 8 5 3 3 3 3 3
0 0 0 0 0 0 0 0 0 0 0 0 0 0 0 0 1 4 8 12 15 16 13 10 10 11 11 11 9 7 6 7 7 8 7 8 8 7 5 4 3 3 3 3
0 0 0 0 0 0 0 0 0 0 0 0 0 0 0 0 1 4 7 11 15 16 14 12 11 12 13 14 11 8 6 8 9 10 10 10 9 7 5 4 4 4 3 3
0 0 0 0 0 0 0 0 0 0 0 0 0 0 0 0 1 4 6 10 14 15 14 13 12 13 15 16 14 12 10 10 11 12 12 11 9 7 5 5 5 5 4 4
0 0 0 0 0 0 0 0 0 0 0 0 0 0 0 0 1 3 5 9 13 13 13 13 14 14 15 17 17 15 14 12 12 12 12 11 9 7 5 4 4 4 4 4
0 0 0 0 0 0 0 0 0 0 0 0 0 0 0 0 1 2 4 7 11 12 12 13 15 15 15 17 18 17 15 12 11 11 11 11 10 7 6 5 4 4 5 5
0 0 0 0 0 0 0 0 0 0 0 0 0 0 0 0 1 3 4 6 9 12 12 12 14 17 18 17 17 17 15 12 10 11 11 12 11 10 9 8 7 6 7 7
0 0 0 0 0 0 0 0 0 0 0 0 0 0 0 1 3 5 6 7 10 12 11 10 13 18 19 17 15 14 15 14 13 13 14 13 12 12 11 10 10 9 8 8
0 0 0 0 0 0 0 0 0 0 0 0 0 0 1 3 6 7 8 10 11 11 9 8 11 15 17 17 14 13 15 15 13 14 16 16 16 15 13 12 11 11 10 9
0 0 0 0 0 0 0 0 0 0 0 0 0 0 1 5 8 8 9 11 12 10 8 8 9 10 13 15 15 14 14 13 12 13 14 15 16 17 15 13 12 12 11 11
0 0 0 0 0 0 0 0 0 0 0 0 0 0 2 5 9 10 11 13 12 10 9 9 9 9 10 14 16 16 15 14 12 11 11 11 12 15 16 13 11 11 11 10
0 0 0 0 0 0 0 0 0 0 0 0 0 0 3 8 12 12 14 15 14 11 11 13 12 10 11 13 15 16 15 14 13 12 10 9 9 12 13 10 8 8 8 8
0 0 0 0 0 0 0 0 0 0 0 0 0 1 4 10 13 12 14 16 15 12 12 14 15 13 12 13 14 15 14 13 13 12 11 10 9 9 10 9 8 7 7 6
0 0 0 0 0 0 0 0 0 0 0 0 1 3 7 11 13 12 13 15 14 12 12 14 14 13 12 13 14 14 13 12 12 11 12 11 9 7 7 7 8 7 7 7
0 0 0 0 0 0 0 0 1 0 0 0 3 7 10 12 13 13 13 14 13 11 11 10 9 9 10 12 12 13 13 12 12 12 11 10 9 6 5 6 7 8 9 10
0 0 0 0 0 0 0 0 0 0 0 1 4 8 11 12 12 12 12 13 12 10 9 8 6 7 9 10 11 12 12 12 12 11 10 9 8 6 5 5 7 9 11 12
0 0 0 0 0 0 0 0 0 0 0 2 5 8 11 11 11 12 12 12 11 9 8 6 6 7 8 8 9 10 10 10 10 10 9 7 6 4 4 5 6 8 10 12
0 0 0 0 0 0 0 1 0 0 1 4 7 9 12 13 13 12 11 12 11 9 8 7 6 7 7 7 7 8 8 8 9 8 7 5 3 2 3 4 5 6 8 9
0 0 0 0 0 0 0 0 0 0 2 5 8 10 13 14 14 12 10 9 9 8 7 8 7 7 6 5 5 6 6 6 7 6 5 3 1 1 2 3 4 6 6 6
0 0 0 0 0 0 0 1 1 1 2 5 6 8 10 12 12 11 8 6 5 6 6 7 7 6 5 4 5 5 5 5 5 5 4 2 2 2 3 5 6 6 6 4
0 0 0 0 0 0 0 1 2 2 4 5 6 6 7 9 10 9 7 5 4 4 5 6 6 5 4 3 4 4 5 4 4 4 3 3 3 4 5 7 6 6 5 4
0 0 0 0 0 0 0 1 3 4 5 6 6 6 7 8 9 8 6 5 4 4 4 5 5 5 4 3 3 4 4 4 4 3 3 4 4 5 7 8 5 4 4 3

GEFSCGP_con_prob3kmehi_288.txt.gz
EHI
0 0 0 0 0 0 0 0 0 0 0 0 1 2 4 3 2 4 7 10 12 11 11 11 10 9 10 11 11 13 16 19 18 16 15 13 9 6 5 6 6 6 4 3
0 0 0 0 0 0 0 0 0 0 0 0 0 1 3 4 2 4 7 10 12 13 13 14 14 13 12 12 12 14 16 18 18 16 14 12 9 7 7 7 7 6 5 4
0 0 0 0 0 0 0 0 0 0 0 0 0 1 2 3 3 4 7 11 14 15 16 17 19 17 15 13 13 13 14 16 18 16 13 11 9 8 8 8 7 5 5 5
0 0 0 0 0 0 0 0 0 0 0 0 0 0 1 2 3 4 9 14 18 18 17 19 20 18 15 13 12 11 12 14 17 16 13 11 10 9 8 8 7 6 5 5
0 0 0 0 0 0 0 0 0 0 0 0 0 0 1 1 2 5 10 17 22 22 20 20 21 18 14 12 13 13 13 14 15 16 15 14 12 11 9 9 8 7 7 7
0 0 0 0 0 0 0 0 0 0 0 0 0 0 0 0 1 4 8 15 22 23 23 23 23 20 14 12 13 16 17 17 15 15 15 15 15 14 12 11 10 9 7 7
0 0 0 0 0 0 0 0 0 0 0 0 0 0 0 0 1 4 8 12 18 21 23 26 27 24 17 12 14 17 20 19 17 15 15 15 15 15 13 12 11 9 7 6
0 0 0 0 0 0 0 0 0 0 0 0 0 0 0 1 2 5 9 12 15 17 19 24 29 28 20 13 13 16 18 19 17 15 15 14 14 14 13 14 13 10 8 6
0 0 0 0 0 0 0 0 0 0 0 0 0 0 1 2 3 5 8 12 13 13 16 21 26 27 22 15 14 15 17 19 18 16 15 14 14 13 14 15 14 12 10 8
0 0 0 0 0 0 0 0 0 0 0 0 0 0 1 2 3 4 7 11 13 13 14 19 24 26 22 17 15 16 17 18 18 16 15 14 14 13 14 15 15 13 12 11
0 0 0 0 0 0 0 0 0 0 0 0 0 0 1 2 3 4 7 12 14 14 15 20 26 27 25 21 18 17 16 16 16 15 13 14 15 15 14 14 15 15 16 15
0 0 0 0 0 0 0 0 0 0 0 0 0 0 0 1 3 6 9 14 17 17 20 25 29 30 28 26 24 21 18 16 15 15 14 15 16 18 17 18 18 18 19 19
0 0 0 0 0 0 0 0 0 0 0 0 0 0 0 2 4 7 11 16 20 22 24 29 32 33 32 29 27 24 20 18 18 19 19 19 19 20 22 22 21 21 23 24
0 0 0 0 0 0 0 0 0 0 0 0 0 0 1 2 6 10 13 18 21 24 29 34 37 37 35 32 30 26 22 22 24 25 24 23 23 23 25 24 21 22 24 25
0 0 0 0 0 0 0 0 0 0 0 0 1 1 1 3 7 12 17 20 22 26 33 38 39 38 36 35 34 31 27 26 28 28 26 25 25 26 26 24 22 22 23 22
0 0 0 0 0 0 0 0 0 0 0 1 2 1 1 4 10 16 20 23 24 27 32 37 37 35 35 36 37 35 30 29 29 28 25 24 25 25 24 23 22 23 22 22
0 0 0 0 0 0 0 0 0 1 1 2 3 3 4 6 11 17 22 24 25 27 31 34 35 35 36 36 36 34 29 27 27 25 22 21 21 20 19 19 20 21 21 22
0 0 0 0 0 0 0 0 1 2 2 2 4 6 6 7 11 17 22 24 26 28 30 32 35 37 38 35 33 32 28 25 23 22 20 19 18 17 14 14 16 17 18 20
0 0 0 0 0 0 0 0 1 2 1 1 3 5 7 10 14 18 23 24 26 28 30 32 36 37 37 33 31 30 29 26 23 22 21 20 19 17 15 14 15 15 15 16
0 0 0 0 0 0 0 1 1 1 1 2 4 6 9 14 18 22 23 22 24 28 30 31 34 35 34 30 28 27 28 28 26 23 21 21 20 17 15 15 15 15 15 15
0 0 0 0 0 0 1 2 3 3 3 5 6 8 12 16 20 24 23 20 23 29 29 28 31 33 32 30 27 25 26 27 25 21 18 19 19 16 13 13 14 14 14 13
0 0 0 0 0 1 3 4 6 7 7 7 8 8 11 15 20 23 22 20 22 27 26 24 26 29 30 29 26 24 23 23 21 18 16 16 17 15 12 12 12 12 11 10
0 0 0 0 0 1 2 4 7 8 8 8 8 7 9 14 17 19 19 19 20 22 23 22 22 24 25 24 22 21 20 18 18 18 17 18 17 16 14 12 10 9 9 9
0 0 0 0 0 1 2 4 6 6 6 6 7 9 11 14 16 17 18 18 17 19 21 20 19 20 21 20 19 18 16 15 15 15 17 18 18 17 16 14 10 8 8 9
0 1 1 1 1 2 3 5 6 6 6 6 9 13 14 16 17 17 17 15 14 16 17 17 16 16 18 19 18 16 15 13 12 11 12 14 16 16 14 12 9 7 7 7
1 2 2 1 1 2 4 5 7 8 7 8 12 15 15 15 16 17 15 12 11 12 13 13 12 13 17 18 17 16 15 13 10 8 8 10 12 13 11 8 8 7 5 5